Home   Weather   Dillenburg   Past weeks

Flag for Germany Past Weather in Dillenburg, Hesse, Germany — Yesterday and Last 2 Weeks

Now
39 °F

Clear.


Feels Like: 37 °F
Forecast: 32 / 52 °F
Wind: 3 mph from West

Location: Hessen

Current Time: Apr 29, 2017 at 12:08:28 am

Latest Report: Apr 28, 2017 at 8:50 pm


Visibility: 10 mi

Pressure: 29.95 "Hg

Humidity: 87%

Dew Point: 36 °F

Location of DillenburgLocation

Past Weather in Dillenburg — Graph

°F

Dillenburg Temperature Yesterday

Maximum temperature yesterday: 45 °F (at 12:50 pm)
Minimum temperature yesterday: 37 °F (at 8:20 am)
Average temperature yesterday: 43 °F

High & Low Weather Summary for the Past Weeks

 TemperatureHumidityPressure
High54 °F (Apr 24, 3:20 pm)100% (Apr 14, 7:50 am)30.54 "Hg (Apr 14, 7:50 am)
Low28 °F (Apr 19, 7:50 am)37% (Apr 20, 4:20 pm)29.68 "Hg (Apr 25, 7:20 am)
Average40 °F70%30.08 "Hg
* Reported Apr 13 8:20 pm — Apr 28 8:50 pm, Dillenburg, Weather by CustomWeather, © 2017

Note: Actual official high and low records may vary slightly from our data, if they occured in-between our weather recording intervals... More about our weather records

Advertising

Dillenburg Weather History for the Previous 24 Hours

Scroll right to see more
 ConditionsComfort  
Time TempWeatherWind HumidityBarometerVisibility
8:50 pm
Fri, Apr 28
39 °FClear.3 mph87%29.95 "Hg10 mi
7:50 pm41 °FSprinkles. Broken clouds.9 mph81%29.95 "HgN/A
7:20 pm45 °FScattered showers. Broken clouds.5 mph66%29.92 "HgN/A
6:50 pm45 °FScattered showers. Broken clouds.7 mph66%29.92 "HgN/A
6:20 pm45 °FBroken clouds.12 mph61%29.92 "HgN/A
5:50 pm45 °FBroken clouds.5 mph66%29.92 "HgN/A
5:20 pm45 °FBroken clouds.6 mph61%29.92 "HgN/A
4:50 pm45 °FBroken clouds.7 mph61%29.92 "HgN/A
4:20 pm45 °FPartly sunny.7 mph61%29.92 "HgN/A
3:50 pm45 °FPartly sunny.6 mph57%29.92 "HgN/A
3:20 pm45 °FPartly sunny.7 mph53%29.92 "HgN/A
2:50 pm45 °FPartly sunny.6 mph49%29.89 "HgN/A
2:20 pm45 °FPartly sunny.14 mph49%29.89 "HgN/A
1:50 pm45 °FScattered clouds.9 mph49%29.89 "HgN/A
1:20 pm45 °FScattered clouds.8 mph53%29.89 "HgN/A
12:50 pm45 °FScattered clouds.7 mph57%29.89 "HgN/A
12:20 pm43 °FScattered clouds.7 mph53%29.89 "HgN/A
11:50 am43 °FScattered clouds.8 mph57%29.92 "HgN/A
11:20 am41 °FScattered clouds.7 mph61%29.92 "HgN/A
10:50 am43 °FScattered clouds.7 mph57%29.92 "HgN/A
10:20 am41 °FPassing clouds.6 mph66%29.92 "HgN/A
9:20 am39 °FPassing clouds.6 mph65%29.92 "HgN/A
8:50 am37 °FPassing clouds.5 mph75%29.92 "HgN/A
8:20 am37 °FSunny.2 mph81%29.92 "Hg10 mi
Weather by CustomWeather, © 2017

See weather overviewHow to use our weather pages